This is the latest recevied weather packets stored in our database for station/object IR3AS. If no packets are shown the sender has not sent any weather packets the latest 10 day(s).
| Time | Temp. | Humidity | Pressure | Rain* | Wind** | Luminosity | Snow |
|---|---|---|---|---|---|---|---|
| 1777901753 | 11.67° C | 57% | 860.9 hPa | 0 mm | - | - | - |
| 1777901453 | 12.22° C | 57% | 860.9 hPa | 0 mm | - | - | - |
| 1777901153 | 12.22° C | 57% | 860.9 hPa | 0 mm | - | - | - |
| 1777900853 | 12.22° C | 56% | 860.8 hPa | 0 mm | - | - | - |
| 1777900553 | 12.78° C | 56% | 860.9 hPa | 0 mm | - | - | - |
| 1777900253 | 12.78° C | 55% | 861 hPa | 0 mm | - | - | - |
| 1777899953 | 12.78° C | 57% | 861 hPa | 0 mm | - | - | - |
| 1777899653 | 12.22° C | 58% | 861.3 hPa | 0 mm | - | - | - |
| 1777899353 | 11.67° C | 57% | 861.3 hPa | 0 mm | - | - | - |
| 1777899093 | 11.67° C | 58% | 861.5 hPa | 0 mm | - | - | - |
| 1777899053 | 11.67° C | 58% | 861.5 hPa | 0 mm | - | - | - |
| 1777898753 | 11.67° C | 58% | 861.3 hPa | 0 mm | - | - | - |
| 1777898453 | 11.67° C | 58% | 861.4 hPa | 0 mm | - | - | - |
| 1777898153 | 11.67° C | 58% | 861.4 hPa | 0 mm | - | - | - |
| 1777897886 | 11.11° C | 58% | 861.4 hPa | 0 mm | - | - | - |
| 1777897853 | 11.11° C | 58% | 861.4 hPa | 0 mm | - | - | - |
| 1777897590 | 11.67° C | 58% | 861.5 hPa | 0 mm | - | - | - |
| 1777897553 | 11.67° C | 58% | 861.5 hPa | 0 mm | - | - | - |
| 1777897253 | 11.11° C | 58% | 861.2 hPa | 0 mm | - | - | - |
| 1777896953 | 11.11° C | 58% | 861.1 hPa | 0 mm | - | - | - |
| 1777896653 | 10.56° C | 58% | 861.2 hPa | 0 mm | - | - | - |
| 1777896353 | 11.11° C | 57% | 861.2 hPa | 0 mm | - | - | - |
| 1777896053 | 11.67° C | 57% | 861.2 hPa | 0 mm | - | - | - |
| 1777895753 | 11.67° C | 57% | 861.3 hPa | 0 mm | - | - | - |
| 1777895453 | 11.67° C | 58% | 861 hPa | 0 mm | - | - | - |
* Rain latest hour (hover to see other rain measurements)
** Current wind speed in m/s (hover to see current wind gust speed)